www.pogodaiklimat.ru

Погода и климат >> Архив погоды >> Алжир >> Арзев


ПОГОДА в Арзеве

  • Прогноз погоды в Арзеве
  • Монитор погоды в Арзеве

АРХИВ ПОГОДЫ в Арзеве

Время (UTC), дата Ветер
(напр.,м/с)
 
Видим.   Явления Облачность Т
(С)
Тd
(С)
f
(%)
Тe
(С)
Тes
(С)
Комфортность P
(гПа)
Po
(гПа)
Тmin
(С)
Tmax
(С)
R
(мм)
R24
(мм)
S
(см)
06 15.09 штиль 0 9000 м 3/3 480 м
[St]
+24.3 +21.5 84 +31 +31 очень
душно
1014.9 1014.4 +24.3
09 15.09 З 3 10 км 1/1 480 м
[Frnb]
+27.2 +22.4 75 +36 +41 очень
душно
1015.4 1014.9
12 15.09 З 4 8000 м 1/1 480 м
[Frnb]
+28.4 +22.6 71 +38 +46 очень
душно
1014.9 1014.4
15 15.09 СЗ 6 10 км 3/3 480 м
[Frnb]
+27.8 +22.4 72 +36 +38 очень
душно
1014.2 1013.7
18 15.09 З 3 10 км 1/0
[Ac trans]
+26.6 +21.8 75 +34 +34 очень
душно
1014.4 1013.9 +29.1
21 15.09 З 2 8000 м 1/1 480 м
[Frnb]
+25.1 +21.1 78 +32 +32 очень
душно
1016.2 1015.7
00 16.09 штиль 0 8000 м 5/5 480 м
[St]
+24.4 +21.7 85 +31 +31 очень
душно
1016.8 1016.3
03 16.09 З 3 8000 м 6/6 480 м
[St]
+24.3 +21.6 85 +31 +31 очень
душно
1015.9 1015.4
06 16.09 З 2 8000 м 10/10 480 м
[Cu med, cong]
+24.7 +21.3 81 +31 +31 очень
душно
1015.9 1015.4 +24.0
09 16.09 ЮЗ 2 8000 м 9/9 480 м
[Cu med, cong]
+26.2 +20.8 72 +33 +33 очень
душно
1017.9 1017.4
12 16.09 С 4 10 км 4/4 600 м
[Cu hum]
+26.1 +23.0 83 +35 +41 очень
душно
1017.0 1016.5
15 16.09 С 5 10 км 4/4 600 м
[Cu hum]
+25.8 +23.1 85 +34 +37 очень
душно
1015.7 1015.2
18 16.09 С 4 10 км 3/3 600 м
[Cu hum]
+25.1 +22.5 86 +33 +33 очень
душно
1015.6 1015.1 +27.4
21 16.09 СВ 2 10 км 3/3 600 м
[Cu hum]
+24.3 +22.3 89 +32 +32 очень
душно
1016.7 1016.2
00 17.09 СВ 3 10 км 3/3 600 м
[Cu hum]
+24.0 +22.2 90 +31 +31 очень
душно
1015.9 1015.4
03 17.09 СВ 4 10 км 3/3 600 м
[Cu hum]
+23.8 +22.1 90 +31 +31 очень
душно
1015.0 1014.5
06 17.09 В 4 10 км 8/4 600 м
[Cu med, cong Ci sp]
+23.7 +21.7 89 +30 +30 очень
душно
1015.4 1014.9 +23.3
09 17.09 СВ 3 7000 м 9/6 480 м
[Frnb Ci sp]
+24.1 +21.3 84 +30 +32 очень
душно
1015.9 1015.4
12 17.09 СВ 6 8000 м 8/4 480 м
[Frnb Ci sp]
+24.7 +22.3 87 +32 +35 очень
душно
1014.2 1013.7
15 17.09 В 5 8000 м 10/10 480 м
[Frnb]
+24.5 +22.2 87 +32 +32 очень
душно
1012.3 1011.8
18 17.09 СЗ 2 9000 м 9/5 700 м
[Sc Ac trans]
+25.6 +22.6 84 +34 +34 очень
душно
1010.3 1009.8 +25.9
21 17.09 С 5 9000 м 8/3 700 м
[Sc Ac trans Ci sp]
+24.9 +22.3 85 +32 +32 очень
душно
1012.6 1012.1
00 18.09 штиль 0 8000 м 8/4 700 м
[Sc Ci sp]
+24.1 +22.4 90 +31 +31 очень
душно
1012.9 1012.4
03 18.09 В 3 7000 м 9/8 600 м
[Cu med, cong Ci sp]
+24.4 +22.1 87 +32 +32 очень
душно
1011.8 1011.3
06 18.09 З 3 4000 м слаб. дождь 9/8 600 м
[Cu med, cong Ci sp]
+23.7 +21.9 90 +31 +31 очень
душно
1012.7 1012.2 +23.6 0.5
09 18.09 З 3 8000 м 9/9 480 м
[Cu med, cong]
+25.8 +22.3 81 +34 +34 очень
душно
1014.1 1013.6
12 18.09 З 4 10 км 9/9 480 м
[Cu med, cong]
+27.8 +22.4 72 +36 +37 очень
душно
1014.1 1013.6 0.3
15 18.09 С 5 10 км 6/6 480 м
[Cu med, cong]
+27.1 +22.8 77 +36 +37 очень
душно
1013.1 1012.6
18 18.09 С 4 10 км 8/8 480 м
[Cu med, cong]
+24.8 +20.8 78 +31 +31 очень
душно
1013.7 1013.2 +28.3 0.3
21 18.09 С 2 10 км 8/8 480 м
[Cu med, cong]
+24.7 +21.5 82 +31 +31 очень
душно
1014.7 1014.2
00 19.09 ЮЗ 1 10 км 6/6 700 м
[Cu med, cong]
+24.4 +21.3 83 +31 +31 очень
душно
1015.8 1015.3
03 19.09 С 2 10 км 6/6 700 м
[Cu med, cong]
+23.9 +21.9 89 +31 +31 очень
душно
1014.6 1014.1
06 19.09 С 2 10 км гроза без осадков 9/9 480 м
[Cb cap]
+23.9 +21.6 87 +31 +31 очень
душно
1014.7 1014.2 +23.8 0.3
09 19.09 штиль 0 10 км {гроза} 8/8 480 м
[Cu med, cong]
+24.5 +21.9 85 +31 +33 очень
душно
1015.9 1015.4
12 19.09 С 4 10 км {гроза} 3/3 700 м
[Cu med, cong]
+25.8 +22.7 83 +34 +41 очень
душно
1015.2 1014.7
15 19.09 С 4 10 км 4/4 700 м
[Cu med, cong Ac trans]
+25.7 +22.2 81 +33 +36 очень
душно
1014.0 1013.5
18 19.09 СВ 4 10 км 8/1 700 м
[Cu med, cong Ac trans Ci sp]
+24.8 +22.1 85 +32 +32 очень
душно
1014.1 1013.6 +26.2
21 19.09 СВ 3 10 км 5/3 700 м
[Cu med, cong Ci sp]
+24.4 +22.0 86 +31 +31 очень
душно
1014.9 1014.4
00 20.09 СВ 3 10 км 6/4 480 м
[Frnb Ac trans]
+24.1 +22.3 90 +31 +31 очень
душно
1014.8 1014.3
03 20.09 СВ 5 7000 м 6/6 480 м
[St]
+23.9 +22.4 91 +31 +31 очень
душно
1013.8 1013.3
06 20.09 СВ 3 10 км 5/3 480 м
[Frnb Ci sp]
+23.4 +21.6 90 +32 +32 очень
душно
1012.7 1012.2 +23.3
09 20.09 В 5 10 км 9/3 700 м
[Cu med, cong Ac trans Ci sp]
+24.6 +22.0 85 +32 +33 очень
душно
1012.9 1012.4
12 20.09 С 4 10 км 9/4 700 м
[Cu med, cong Ac und]
+26.1 +23.3 85 +35 +38 очень
душно
1012.6 1012.1
15 20.09 СВ 4 10 км 9/4 700 м
[Cu med, cong Ci sp]
+26.2 +23.2 84 +35 +38 очень
душно
1011.0 1010.5
18 20.09 С 5 10 км 10/10 480 м
[Frnb]
+24.9 +22.8 88 +33 +33 очень
душно
1010.7 1010.2 +26.7
21 20.09 З 4 10 км 6/6 480 м
[St]
+24.8 +22.7 88 +33 +33 очень
душно
1013.1 1012.6
00 21.09 С 4 10 км 6/6 480 м
[St]
+24.9 +23.1 90 +33 +33 очень
душно
1010.8 1010.3
03 21.09 С 4 10 км 6/6 480 м
[St]
+25.1 +23.2 89 +34 +34 очень
душно
1009.9 1009.4
06 21.09 ЮЗ 3 10 км 9/5 800 м
[Sc Ac und]
+24.5 +22.2 87 +32 +32 очень
душно
1011.5 1011.0 +24.1
09 21.09 З 3 10 км 9/9 600 м
[Cu Sc]
+25.9 +22.4 81 +34 +34 очень
душно
1013.1 1012.6
12 21.09 СЗ 3 10 км 9/4 600 м
[Cu med, cong Ac trans Ci sp]
+28.7 +22.3 68 +37 +41 очень
душно
1012.3 1011.8
15 21.09 С 6 10 км 10/6 480 м
[Frnb Ci sp]
+26.1 +23.1 84 +35 +36 очень
душно
1011.2 1010.7
18 21.09 СВ 4 10 км 10/10 600 м
[Cu Sc]
+25.3 +22.6 85 +33 +33 очень
душно
1012.2 1011.7 +29.4
21 21.09 штиль 0 10 км 8/8 600 м
[Cu Sc]
+24.6 +22.6 89 +32 +32 очень
душно
1012.9 1012.4
00 22.09 штиль 0 10 км 6/3 800 м
[Sc Ci sp]
+24.7 +22.1 85 +32 +32 очень
душно
1013.0 1012.5
03 22.09 штиль 0 10 км 4/0
[Ci sp]
+24.4 +21.3 83 +31 +31 очень
душно
1012.5 1012.0

 

Местоположение метеостанции Арзев (Алжир): широта 35.82 долгота -0.27 высота над уровнем моря 4 м.

В архиве по умолчанию представлена погода в Арзеве за последнюю неделю. Архивные данные за месяц целиком и за предыдущие месяцы, начиная с января 2011 года, Вы можете получить, выбрав интересующий диапазон дат из раскрывающегося списка и нажав кнопку "Ввод!".


*Определитесь, кто Вы:
робот инопланетянин человек

Внимание! Время в таблицах - всемирное. Для получения местного времени необходимо прибавить поправку, которая равна 1 ч.

Смотрите также архив погоды в соседних городах и на ближайших метеорологических станциях:

Погода в Мостаганеме (Алжир) (36 км)
Погода в Оран аэропорту (Алжир) (37 км)
Погода в Оране (Алжир) (37 км)
Погода в Оран-Тафрауи (Алжир) (44 км)
Погода в Релизане (Алжир) (75 км)
Погода в Сиди-Бель-Аббесе (Алжир) (76 км)
Погода в Грисе (Алжир) (77 км)
Погода в Саиде (Алжир) (112 км)
Погода в Бени-Сафе (Алжир) (114 км)
Погода в Аэропорту Messali El Hadj (Алжир) (141 км)

Пояснения к столбцам:

Ветер - указаны скорость ветра в м/с - средняя за 10 мин, порывы в срок и между сроками (в фигурных скобках) и направление, откуда дует ветер: С - северный, СВ - северо-восточный, В - восточный, ЮВ - юго-восточный, Ю - южный, ЮЗ - юго-западный, З - западный, СЗ - северо-западный.
Видимость - горизонтальная дальность видимости в метрах или километрах. При видимости от 1 до 10 км при отсутствии осадков обычно наблюдается дымка, при ухудшении видимости до 1 км и менее - туман. В сухую погоду видимость может ухудшаться дымом, пылью или мглою.
Явления - указаны атмосферные явления, наблюдавшиеся в срок или в последний час перед сроком; фигурными скобками обозначены явления, наблюдавшиеся между сроками (за 1-3 часа до срока); квадратными скобками обозначены град или гололедные отложения с указанием их диаметра в мм.
Облачность - указаны через наклонную черту общая и нижняя облачность в баллах и высота нижней границы облаков в метрах; квадратными скобками обозначены формы облаков: Ci - перистые, Cs - перисто-слоистые, Cc - перисто-кучевые, Ac - высококучевые, As - высокослоистые, Sc - слоисто-кучевые, Ns - слоисто-дождевые, Cu - кучевые, Cb - кучево-дождевые. Подробнее классификацию облаков см. в Атласе облаков (PDF).
T - Температура воздуха - температура, измеренная на высоте 2 м над землей.
Td - Температура точки росы - температура, при понижении до которой содержащийся в воздухе водяной пар достигнет насыщения.
f - Относительная влажность воздуха - влажноcть воздуха, измеренная на высоте 2 м над землей.
Te - Эффективная температура - температура, которую ощущает одетый по сезону человек в тени. Характеристика душности погоды. При расчете учитывается влияние влажности воздуха и скорости ветра на теплоощущения человека.
Tes - Эффективная температура на солнце - температура, которую ощущает человек, с поправкой на солнечный нагрев. Характеристика знойности погоды. Зависит от высоты солнца над горизонтом, облачности и скорости ветра. Ночью, в пасмурную погоду, а также при ветре 12 м/с и более поправка равна нулю.
P - Атмосферное давление - приведенное к уровню моря атмосферное давление.
Po - Атмосферное давление - измеренное на уровне метеостанции атмосферное давление.
Tmin - Минимальная температура - минимум температуры воздуха на высоте 2 м над землей.
Tmax - Максимальная температура - максимум температуры воздуха на высоте 2 м над землей.
R - Количество осадков - Количество выпавших осадков за период времени, мм. При наведении курсора мыши на число - период времени, за который выпало указанное количество осадков.
R24 - Количество осадков - Количество выпавших осадков за 24 часа, мм.
S - Снежный покров - Высота снежного покрова, см. При наведении курсора мыши на число - состояние снежного покрова и степень покрытия местности в баллах.